Regional Weather Roundup
Issued by NWS Green Bay, WI

Home | Current Version | Previous Version | Graphics & Text | Print | Product List | Glossary Off
Versions: 1 2 3 4 5 6 7 8 9 10 11 12 13 14 15 16 17 18 19 20 21 22 23 24 25 26 27 28 29 30 31 32 33 34 35 36 37 38 39 40 41 42 43 44 45 46 47 48 49 50

000
ASUS43 KGRB 191900
RWRGRB

NORTH-CENTRAL AND NORTHEAST WISCONSIN REGIONAL WEATHER ROUNDUP
NATIONAL WEATHER SERVICE GREEN BAY WI
100 PM CST MON FEB 19 2018

WIZ005-009-010>012-018-019-192000-
NORTH CENTRAL WISCONSIN

CITY           SKY/WX    TMP DP  RH WIND       PRES   REMARKS
IRONWOOD       FLURRIES  16  11  80 NE10      30.03R WCI   4
MANITOWISH WTR NOT AVBL
ARBOR VITAE    NOT AVBL
EAGLE RIVER    MIX PCPN  20  16  84 NE14G23   29.94F WCI   6
LAND O LAKES   LGT SNOW  19  15  86 NE10      29.97F WCI   7
RHINELANDER    FRZ RAIN  21  18  88 NE13G18   29.91F FOG     WCI   9
PHILLIPS       CLOUDY    19  16  91 NE12G17   29.92F WCI   6
ANTIGO         NOT AVBL
TOMAHAWK       NOT AVBL
MERRILL        LGT SNOW  24  22  89 NE13      29.89F
$$

WIZ013-073-192000-
NORTHEAST WISCONSIN

CITY           SKY/WX    TMP DP  RH WIND       PRES   REMARKS
IRON MOUNTAIN  MIX PCPN  23  17  78 N14       29.96S
MARINETTE      FLURRIES  29  23  78 NE15      29.96S
$$

WIZ017-030-035>037-045-192000-
CENTRAL WISCONSIN

CITY           SKY/WX    TMP DP  RH WIND       PRES   REMARKS
MEDFORD        NOT AVBL
WAUSAU         LGT SNOW  28  23  81 NE13      29.85S
MOSINEE        LGT SNOW  30  28  93 NE9G16    29.85F
MARSHFIELD     MIX PCPN  30  27  88 NE15      29.80F FOG
WISC RAPIDS    CLOUDY    34  27  75 E15G23    29.82F
STEVENS POINT  NOT AVBL
WAUPACA        NOT AVBL
SHAWANO        LGT SNOW  32  27  81 NE15      29.90F
CLINTONVILLE   CLOUDY    32  28  86 NE16      29.88F
WAUTOMA        CLOUDY    38  31  76 E15       29.81F
$$

WIZ038-039-048-051-192000-
FOX VALLEY

CITY           SKY/WX    TMP DP  RH WIND       PRES   REMARKS
NWS GREEN BAY  MIX PCPN  31  27  85 NE24G35   29.88F
APPLETON       CLOUDY    34  27  75 NE17G28   29.83F HAZE
OSHKOSH        CLOUDY    37  31  78 NE10      29.83F
FOND DU LAC    CLOUDY    41  31  67 NE14      29.82F
$$

WIZ022-050-052-192000-
EAST CENTRAL WISCONSIN

CITY           SKY/WX    TMP DP  RH WIND       PRES   REMARKS
EPHRAIM        NOT AVBL
WASHINGTON ISL NOT AVBL
STURGEON BAY   CLOUDY    29  26  89 NE14      29.94S
MANITOWOC      NOT AVBL
SHEBOYGAN      CLOUDY    38  34  85 NE21G28   29.84F
$$

LMZ563-521-522-541>543-192000-
LAKESHORE

STATION/POSITION TIME  TEMP    WIND        PRES    VSBY  WAVE
                       AIR SEA DIR/SP/G                  HT/PER
                 (UTC) (F)     (DEG/KT/KT) (MB)    (MI)  (FT/S)
SHEBOYGAN LKSHOR 1800   35      10/  8/  9 1011.8F
KEWAUNEE LKSHORE 1830   33      30/ 15/ 22 1012.0F
NORTHPORT PIER   1841   29                 1014.9S
SISTER BAY LKSHO 1805   29      10/ 17/ 24   N/A
MENOMINEE LKSHOR 1830   28      10/ 14/ 16 1014.2F
$$




USA.gov is the U.S. government's official web portal to all federal, state and local government web resources and services.